Presure
193 194 187 203 195 193 192 192 119 191 179 203 190 180 186 186 180 195 202 194 194 204 182 217 192 227 186 208 212 178 220 197 216 222 213 188 197 187 188 212 214 190 214 211 215
149 175 159 142 190 197 158 150 190 197 204 191 191 189 147 191 195 142 196 193 191 193 197 199 205 183 183 221 202 220 205 175 178 178 206 224 213 209 217 216 203 219 204 220 225
174 175 215 204 203 184 202 193 183 215 188 188 198 203 194 192 184 188 193 194 201 202 198 197 182 200 226 185 214 176 212 190 185 223 227 164 176 227 209 209 226 204 215 206 216
174 150 186 180 145 198 183 190 177 182 184 195 200 191 195 183 203 196 185 182 196 184 194 201 202 192 213 192 196 206 197 164 196 217 224 211 221 213 206 210 215 199 196 207 209
169 181 165 178 185 200 191 201 173 168 184 195 193 197 171 196 193 201 190 183 194 194 134 203 197 209 217 188 202 206 182 180 201 170 194 210 212 216 199 190 199 198 203 210 218
199 175 199 157 187 193 191 200 202 195 152 160 149 197 187 181 184 200 197 191 180 186 188 191 201 188 231 169 206 154 170 194 197 188 211 201 214 206 194 210 199 198 199 198 209
185 176 180 187 153 186 153 185 179 195 175 201 188 165 189 180 188 194 188 182 168 181 189 181 190 224 202 224 191 186 210 210 200 201 175 179 194 201 195 191 203 190 199 197 210
145 208 197 200 188 200 181 183 190 163 194 202 196 191 189 184 184 179 189 184 170 194 194 201 213 214 201 200 199 210 222 188 181 209 209 213 176 198 189 198 195 200 201 192 200
216 213 206 208 197 208 177 205 207 205 200 201 193 173 192 179 186 181 191 185 192 193 194 185 182 189 211 200 184 145 202 200 179 154 202 165 218 196 191 186 194 206 192 216 202
225 232 203 214 205 211 205 187 202 211 205 201 207 199 199 207 202 199 200 201 199 198 201 203 205 204 226 192 204 190 172 165 209 205 192 209 206 200 196 198 195 205 192 213 198
224 228 229 208 214 207 192 201 190 191 214 211 190 208 218 209 203 213 201 200 196 180 214 208 208 225 215 172 222 225 233 227 141 165 174 191 224 201 201 189 197 207 189 205 207
218 238 230 247 217 217 206 206 196 214 204 212 214 201 202 209 199 201 205 206 209 210 211 210 185 223 215 230 232 244 221 190 195 185 202 229 220 202 197 188 203 197 206 194 208
229 243 218 213 224 238 220 221 226 236 215 215 213 215 206 218 206 211 209 217 207 211 206 222 224 221 241 240 195 169 210 219 194 198 239 229 213 190 201 200 196 207 198 192 193
225 219 225 226 248 237 225 205 221 247 218 200 221 212 209 225 216 211 223 213 190 202 212 211 234 251 245 252 196 245 186 186 215 245 244 223 212 196 197 199 195 204 195 197 198
245 221 231 250 250 249 229 242 238 257 224 229 262 229 221 197 230 212 231 228 234 232 229 240 240 261 261 236 231 256 222 287 241 243 227 220 213 196 190 198 193 200 194 187 196
269 250 254 260 218 231 241 238 232 234 240 253 75 242 228 222 221 234 236 238 253 260 261 232 256 229 245 308 288 248 294 271 252 234 232 218 215 197 199 199 200 196 205 188 189
247 256 265 276 258 254 261 241 247 230 249 247 258 261 242 229 245 246 231 242 253 266 267 249 308 314 338 272 281 296 284 266 244 231 221 213 209 205 194 193 195 196 197 198 201
281 293 272 267 278 276 270 258 270 251 264 260 260 260 254 253 260 260 270 270 271 281 321 327 116 315 302 268 286 287 268 264 232 220 211 222 208 197 199 192 190 190 196 202 197
321 303 288 256 268 256 274 281 276 278 269 275 262 276 279 252 259 272 272 250 305 307 312 311 304 298 299 273 276 278 274 249 229 221 223 212 206 209 204 207 195 196 200 188 189
286 314 299 289 300 305 298 295 298 294 300 307 294 284 285 283 287 292 285 306 285 280 297 299 280 284 277 273 274 268 266 235 220 221 220 210 201 202 199 199 198 191 202 195 188
325 317 300 307 297 308 311 306 306 314 305 304 311 312 296 300 305 280 291 278 303 267 302 292 282 277 272 264 200 261 246 229 224 209 218 206 204 210 211 198 208 198 199 180 181
336 330 322 324 326 326 296 340 251 311 295 304 319 297 303 308 277 271 298 270 305 295 292 291 264 281 264 258 254 258 239 228 227 217 219 211 208 205 210 213 215 213 218 195 206
325 325 321 336 329 340 347 350 461 449 208 408 390 436 337 312 309 299 291 296 298 283 258 271 254 260 251 254 247 247 244 231 217 220 217 218 197 207 200 199 215 189 205 208 203
339 319 320 314 320 342 362 429 384 422 404 417 379 422 351 336 326 285 284 270 288 279 275 237 258 261 264 241 246 238 236 233 225 228 218 219 201 200 201 201 204 202 203 208 199
305 299 301 311 314 324 339 386 369 417 382 374 396 346 337 327 319 283 285 276 285 275 272 231 194 254 248 256 251 238 246 246 226 224 223 211 214 204 204 200 206 201 201 202 204
289 288 295 289 291 310 323 374 407 380 393 362 385 357 327 319 321 293 291 279 286 274 267 264 254 251 248 245 244 246 238 235 241 223 229 227 215 209 212 199 206 208 203 205 204
277 280 283 288 295 296 306 334 404 381 386 283 153 336 327 313 312 297 285 272 274 275 266 260 260 241 244 250 244 231 235 234 228 239 228 223 222 210 208 207 212 208 212 211 211
Wind_Speed
77 77 83 78 79 77 78 76 61 75 86 69 76 84 76 78 83 70 69 70 75 66 81 61 72 57 74 59 53 85 54 67 58 54 58 63 58 61 64 60 56 56 56 56 56
81 83 75 80 84 79 94 85 79 79 75 77 77 78 63 73 75 58 68 75 75 72 67 65 59 69 72 56 65 38 50 79 62 72 61 49 51 56 52 54 61 47 62 53 50
81 88 72 75 78 85 78 79 84 70 76 78 76 75 75 77 81 73 77 75 72 68 68 67 73 49 74 68 55 78 39 54 82 50 48 58 55 45 54 55 45 52 51 53 46
89 87 87 87 79 79 87 81 86 85 82 81 78 80 79 78 78 77 78 82 74 78 72 75 65 55 50 54 45 41 47 56 60 49 48 54 48 49 53 52 44 58 55 53 53
96 91 85 92 90 83 85 82 86 87 85 82 82 82 74 78 84 73 78 80 80 79 61 86 66 69 66 63 41 39 74 70 60 61 52 52 50 47 57 50 48 56 51 51 50
89 93 86 72 94 90 91 86 85 86 68 74 71 84 84 83 84 81 79 80 80 80 80 76 70 48 85 56 60 66 64 57 51 60 55 58 48 50 63 48 49 55 53 53 52
92 90 95 91 70 96 69 92 89 89 82 90 88 87 85 89 85 84 83 82 78 79 82 76 67 86 52 69 54 63 52 42 49 50 39 47 50 48 59 44 49 58 51 54 49
75 99 99 98 98 96 88 98 99 89 94 93 93 92 88 89 87 85 88 85 75 91 92 92 94 85 58 46 44 64 68 55 60 53 54 45 52 48 59 57 51 53 54 56 53
98 101 103 103 102 101 82 97 96 98 99 97 94 82 94 88 89 83 91 86 91 94 91 75 69 73 70 65 61 58 67 58 65 44 60 34 42 53 59 52 56 51 54 48 52
92 97 104 106 108 106 103 93 97 98 100 101 103 96 94 102 99 100 98 100 100 98 98 94 91 68 90 56 57 69 47 56 51 57 56 49 46 52 60 53 58 50 54 48 53
95 92 99 110 112 106 95 103 91 93 101 106 90 102 103 100 96 102 102 99 93 81 104 99 88 95 93 73 89 84 74 60 63 50 40 43 46 51 61 53 55 49 54 47 47
96 83 91 88 115 111 105 106 93 108 97 107 108 96 98 99 95 99 100 102 105 100 101 88 68 94 78 86 85 85 56 64 60 70 56 51 43 52 60 56 52 49 42 54 44
95 91 100 102 111 101 107 109 109 110 102 106 107 107 98 107 100 111 100 110 104 106 93 108 98 88 98 92 82 69 68 62 58 64 58 52 44 58 62 57 55 41 46 54 54
104 102 95 102 94 102 102 106 113 107 104 88 110 100 102 112 106 108 114 106 79 79 91 73 91 102 90 83 81 62 65 64 60 58 51 53 46 58 57 60 53 45 47 47 50
107 106 101 98 92 93 106 95 104 92 108 107 90 108 105 79 108 98 114 114 110 111 102 97 90 95 88 66 62 67 56 60 55 55 57 53 48 56 57 58 57 47 48 52 51
103 94 96 97 93 98 97 99 103 102 99 96 23 98 102 113 109 105 114 111 108 107 105 85 93 62 75 50 53 56 57 59 59 58 55 52 51 56 58 57 53 48 42 53 56
92 97 96 96 100 97 102 104 103 97 97 100 101 91 103 110 107 108 100 106 104 101 98 95 67 56 44 49 52 51 58 61 60 60 55 57 53 52 56 58 53 48 41 47 45
94 95 97 95 97 97 97 102 102 93 97 106 103 96 94 100 98 98 98 93 92 86 62 53 19 48 45 50 47 48 57 64 58 60 58 56 51 55 57 59 56 53 44 42 48
86 88 89 87 90 90 95 96 89 90 97 97 100 96 93 96 90 92 87 81 70 61 51 50 45 48 44 45 45 47 53 61 60 62 59 56 54 55 55 60 59 54 46 52 54
77 80 84 82 89 92 88 83 83 86 89 91 88 88 87 88 81 78 76 66 60 54 48 47 47 45 42 43 42 46 53 61 58 63 60 57 57 56 56 59 61 58 53 46 57
72 72 74 76 77 78 75 75 77 77 79 83 81 74 80 79 72 69 65 59 54 51 44 44 43 45 43 46 41 51 59 61 63 59 63 59 60 60 58 60 65 59 52 54 50
60 62 64 68 70 71 66 68 54 71 73 76 72 70 76 73 68 57 57 58 50 45 44 38 44 45 46 51 52 54 62 64 67 64 66 63 60 59 57 64 65 58 50 61 57
45 46 49 46 50 49 48 46 27 28 21 42 47 41 64 68 62 55 57 48 47 50 45 45 43 49 49 52 55 56 65 67 63 66 63 64 57 63 58 56 64 57 57 60 54
20 28 34 37 38 27 22 18 25 25 26 31 45 46 59 53 53 56 56 51 47 51 49 46 49 49 52 56 58 58 60 68 65 69 65 65 64 57 60 61 62 60 63 61 56
24 31 31 26 26 23 20 19 22 22 31 36 30 39 55 51 53 55 56 54 53 54 53 47 40 54 54 57 60 58 58 62 69 70 71 68 70 67 69 64 64 64 64 61 59
27 31 25 30 29 18 20 17 21 23 25 35 35 44 53 54 54 56 57 56 57 56 57 54 56 56 58 58 56 55 57 60 62 67 70 76 73 75 73 65 69 66 71 67 63
27 29 25 26 18 19 17 23 17 24 28 30 15 55 52 53 53 54 53 52 53 58 61 57 59 58 60 61 57 54 59 63 66 65 69 71 75 76 72 70 72 69 72 67 65
Wind_Direction
261 260 262 261 262 263 265 266 265 266 264 268 265 265 265 268 268 270 275 270 271 277 271 287 264 294 268 290 291 280 289 284 282 273 275 285 274 281 286 279 282 280 285 288 291
265 264 264 265 263 262 265 267 263 265 266 267 266 266 271 268 270 273 276 272 270 274 277 272 266 270 267 301 284 295 273 280 280 283 281 273 272 276 278 279 285 290 283 294 290
266 264 261 261 262 263 265 265 264 270 264 265 266 266 267 270 270 273 274 274 280 281 279 278 267 272 297 268 289 280 294 277 280 288 277 271 278 273 277 279 284 279 283 285 285
263 267 266 264 271 259 264 262 265 265 266 270 268 268 269 269 271 271 273 271 280 274 279 283 282 267 285 276 265 288 268 270 275 301 276 274 273 274 278 277 284 279 286 288 288
262 264 270 265 265 262 263 261 263 265 264 263 265 267 270 270 271 272 273 274 278 279 259 281 276 283 285 265 271 285 267 278 285 280 279 276 274 269 277 278 281 282 285 288 290
262 261 260 267 263 262 262 259 258 261 267 269 267 264 266 268 269 273 272 272 272 275 276 277 278 264 289 265 275 265 274 276 284 275 287 278 273 275 275 280 278 281 286 289 290
261 264 262 259 271 259 268 261 260 260 260 260 262 266 264 265 268 269 271 270 271 274 274 274 273 284 276 284 248 255 295 297 290 282 279 279 277 265 272 276 276 281 285 286 289
275 256 260 258 258 257 262 260 261 265 260 257 258 260 262 265 265 267 268 269 270 274 275 276 279 282 276 254 261 288 298 263 265 288 277 270 262 261 272 277 276 277 281 286 286
251 252 257 255 257 257 260 255 256 256 259 257 260 258 259 263 263 266 264 267 269 270 272 269 272 274 274 274 274 259 273 275 272 257 279 262 248 261 271 283 275 273 281 282 281
253 254 254 252 255 253 254 259 257 256 257 258 259 260 262 258 262 264 264 264 266 270 275 272 275 270 283 254 264 260 266 274 283 276 275 277 261 257 266 273 272 272 277 279 280
251 253 250 251 253 253 261 257 261 264 255 256 265 262 259 261 262 262 264 267 269 267 272 272 276 278 277 260 281 286 290 287 259 268 267 265 252 251 259 278 267 271 279 278 282
250 260 251 265 250 252 254 256 263 255 255 256 257 261 263 262 263 265 266 267 269 270 273 275 270 278 276 280 283 282 274 269 251 263 271 256 243 253 264 272 263 270 273 278 279
254 265 253 255 250 257 254 255 256 255 254 252 256 258 262 262 264 266 268 264 268 269 272 273 275 277 279 280 261 266 270 269 265 266 250 247 238 261 258 263 265 267 270 275 279
252 248 251 252 263 254 255 259 255 258 256 264 253 261 261 263 261 264 264 265 267 268 270 274 277 278 277 274 261 277 267 270 263 246 240 242 232 253 255 260 265 266 266 273 278
262 248 259 263 260 258 254 254 257 257 256 257 257 253 256 263 261 263 263 265 265 267 272 274 274 272 273 272 270 272 261 228 237 233 235 236 228 245 261 258 265 264 267 274 276
259 254 258 257 260 256 253 256 255 257 256 261 241 252 256 259 263 261 262 265 265 265 267 272 270 268 272 253 258 258 233 225 228 228 228 229 227 238 250 252 257 264 268 269 276
255 260 259 255 253 253 252 253 254 258 258 258 257 255 253 257 257 260 266 268 268 266 267 268 264 256 239 250 252 238 224 221 222 227 229 230 235 226 246 254 257 260 259 265 265
255 254 255 257 257 255 253 255 254 257 258 258 256 254 253 257 259 263 263 263 266 269 263 259 242 246 241 238 239 232 224 217 220 227 232 225 231 232 235 252 253 258 255 260 263
250 251 254 256 255 255 257 258 260 258 258 257 260 261 260 258 260 263 263 261 267 264 258 250 245 241 236 235 235 230 226 216 218 225 221 224 232 228 236 237 247 249 247 258 263
253 252 252 254 255 255 257 259 259 259 258 261 258 261 260 261 260 261 263 260 260 255 249 243 241 232 230 227 230 225 220 213 221 222 221 225 237 233 242 239 245 250 250 248 261
249 251 254 255 256 258 258 258 257 257 255 257 257 258 256 259 256 257 258 256 246 249 237 235 232 229 225 222 226 220 213 216 219 233 225 232 237 235 239 242 242 248 249 255 268
251 255 257 259 260 262 257 262 257 255 254 254 252 252 253 250 253 250 246 248 248 238 229 225 230 217 220 222 221 220 214 218 219 226 224 227 230 241 237 244 245 246 246 249 252
252 255 256 263 265 269 270 266 248 231 229 221 236 212 234 246 247 241 240 234 226 232 234 219 217 224 222 220 220 221 217 218 227 229 228 228 233 235 243 244 249 250 249 249 251
218 239 251 260 267 282 288 268 251 226 226 215 226 222 222 230 229 236 237 236 222 227 215 221 221 218 211 224 221 226 224 221 227 226 229 224 232 242 238 244 245 249 251 251 251
223 241 250 256 265 288 298 287 256 220 226 222 223 218 217 219 219 230 228 228 215 219 216 219 225 219 221 220 222 225 229 228 227 228 228 232 227 236 239 244 242 246 252 253 252
225 240 248 256 262 283 309 295 248 233 210 221 214 212 211 212 211 220 220 221 214 218 222 217 220 223 224 224 224 224 227 230 230 232 229 231 231 235 239 245 245 244 249 252 255
232 242 250 257 260 277 303 318 241 238 212 219 238 211 208 210 209 216 220 223 220 214 219 219 217 226 227 225 225 225 226 228 232 231 231 230 231 236 240 244 245 249 251 251 253